Regional Weather Roundup
Issued by NWS

Home | Current Version | Previous Version | Graphics & Text | Print | Product List | Glossary On
Versions: 1 2 3 4 5 6 7 8 9 10 11 12 13 14 15 16 17 18 19 20 21 22 23 24 25 26 27 28 29 30 31 32 33 34 35 36 37 38 39 40 41 42 43 44 45 46 47 48 49 50
000
ASUS43 KIND 301659
RWRIN

WEATHER ROUNDUP FOR INDIANA
NATIONAL WEATHER SERVICE INDIANAPOLIS IN
100 PM EDT SAT APR 30 2016

NOTE: "FAIR" INDICATES FEW OR NO CLOUDS BELOW 12,000 FEET WITH NO
SIGNIFICANT WEATHER AND/OR OBSTRUCTIONS TO VISIBILITY.

* - STATION DOES NOT REPORT WEATHER SUCH AS PRECIPITATION OR FOG.

+ - STATION NOT QUALITY CONTROLLED BY THE NATIONAL WEATHER SERVICE.
    USE DATA WITH CAUTION...ESPECIALLY DEWPOINT AND RELATIVE
    HUMIDITY OBSERVATIONS.

INZ001>003-010>013-019-020-301800-
NORTHWEST INDIANA

CITY           SKY/WX    TMP DP  RH WIND       PRES   REMARKS
GARY /AIRPORT/ LGT RAIN  48  48 100 E14       30.02F
RENSSELAER +   RAIN      46  46 100 E20       29.96F

$$

LMZ046-743>745-301800-
SOUTHERN LAKE MICHIGAN

STATION/POSITION TIME  TEMP    WIND        PRES    WAVE
                       AIR SEA DIR/SP/G            HT
                 (UTC) (F)     (DEG/KT/KT) (MB)    (FT)
BURNS HARBOR     1605   46     100/  9/ 17 1017.6S
MICHIGAN CITY    1600   45      70/ 10/ 13   N/A

$$

INZ004-005-014>016-021>024-301800-
NORTH CENTRAL INDIANA

CITY           SKY/WX    TMP DP  RH WIND       PRES   REMARKS
ELKHART        LGT RAIN  48  46  93 E10       30.07S
GOSHEN         LGT RAIN  47  41  80 E12       30.06F
SOUTH BEND     LGT RAIN  47  41  80 E13       30.06F

$$

INZ006>009-017-018-025>027-301800-
NORTHEAST INDIANA

CITY           SKY/WX    TMP DP  RH WIND       PRES   REMARKS
ANGOLA *+      CLOUDY    48  39  71 E9        30.09S
FORT WAYNE     LGT RAIN  47  43  86 E16       30.07F

$$

INZ028-029-035-036-043>045-051>053-301800-
WEST CENTRAL INDIANA

CITY           SKY/WX    TMP DP  RH WIND       PRES   REMARKS
CRAWFORDSVL +  LGT RAIN  51  51 100 E12G21    29.94F
GREENCASTLE +  LGT RAIN  54  54 100 E10       29.93F
LAFAYETTE      LGT RAIN  50  48  93 E14       29.94F FOG
TERRE HAUTE    LGT RAIN  57  55  93 SE17      29.87F FOG

$$

INZ030>032-037>040-046>048-054>057-064-065-301800-
CENTRAL INDIANA

CITY           SKY/WX    TMP DP  RH WIND       PRES   REMARKS
ANDERSON       LGT RAIN  50  50 100 E12       30.01F
INDIANAPOLIS   LGT RAIN  53  50  89 E9        29.94F FOG
-EAGLE CREEK   LGT RAIN  53  51  93 E8        29.96F FOG
KOKOMO *+      CLOUDY    48  45  87 E15       30.00F
SHELBYVILLE    LGT RAIN  55  51  86 E16       29.95F

$$

INZ033-034-041-042-049-050-058-059-301800-
EAST CENTRAL INDIANA

CITY           SKY/WX    TMP DP  RH WIND       PRES   REMARKS
MUNCIE         LGT RAIN  50  47  89 E12       30.01F FOG

$$

INZ060-061-067>069-081>083-085>088-301800-
SOUTHWEST INDIANA

CITY           SKY/WX    TMP DP  RH WIND       PRES   REMARKS
EVANSVILLE     LGT RAIN  62  59  90 SE7       29.89S
HUNTINGBURG *+ CLOUDY    61  57  88 SE13G18   29.89F

$$

INZ062-063-066-070>080-084-089>092-301800-
SOUTH CENTRAL AND SOUTHEAST INDIANA

CITY           SKY/WX    TMP DP  RH WIND       PRES   REMARKS
BLOOMINGTON    HVY RAIN  56  53  90 SE7       29.94S VSB 3/4
MADISON *+     CLOUDY    55  54  94 E12       29.99F
SEYMOUR +      DRIZZLE   59  55  88 SE6       29.96F

$$





USA.gov is the U.S. government's official web portal to all federal, state and local government web resources and services.